Regional Weather Roundup
Issued by NWS Green Bay, WI

Home | Current Version | Previous Version | Graphics & Text | Print | Product List | Glossary Off
Versions: 1 2 3 4 5 6 7 8 9 10 11 12 13 14 15 16 17 18 19 20 21 22 23 24 25 26 27 28 29 30 31 32 33 34 35 36 37 38 39 40 41 42 43 44 45 46 47 48 49 50

000
ASUS43 KGRB 270910
RWRGRB

NORTH-CENTRAL AND NORTHEAST WISCONSIN REGIONAL WEATHER ROUNDUP
NATIONAL WEATHER SERVICE GREEN BAY WI
400 AM CDT FRI MAR 27 2015

WIZ005-009-010>012-018-019-271000-
NORTH CENTRAL WISCONSIN

CITY           SKY/WX    TMP DP  RH WIND       PRES   REMARKS
IRONWOOD       CLOUDY    19   5  53 N6        30.16R
MANITOWISH WTR CLOUDY    12  10  92 CALM      30.14R
ARBOR VITAE    LGT SNOW  11   9  89 CALM      30.13S
EAGLE RIVER    CLEAR      7   3  84 NW3       30.12S
LAND O LAKES   CLEAR     10   6  84 NW3       30.13R
RHINELANDER    PTCLDY    10   5  80 CALM      30.13S
PHILLIPS       PTCLDY    12   6  77 CALM      30.15R
ANTIGO         CLEAR      9   5  82 NW6       30.13S WCI  -1
TOMAHAWK       PTCLDY     8   4  84 CALM      30.16S
MERRILL        PTCLDY    11   6  83 N3        30.16R
$$

WIZ013-073-271000-
NORTHEAST WISCONSIN

CITY           SKY/WX    TMP DP  RH WIND       PRES   REMARKS
IRON MOUNTAIN  CLEAR      9   2  73 N5        30.12R WCI   1
MARINETTE      CLEAR     14   7  73 NW7       30.15S WCI   4
OCONTO         CLEAR     16   8  70 NW6       30.16S WCI   7
$$

WIZ017-030-035>037-045-271000-
CENTRAL WISCONSIN

CITY           SKY/WX    TMP DP  RH WIND       PRES   REMARKS
MEDFORD        CLEAR     10   4  79 N5        30.15R WCI   2
WAUSAU         PTCLDY    15   7  70 N8        30.15R WCI   4
MOSINEE        CLOUDY    18   9  68 NW7       30.16R WCI   8
MARSHFIELD     CLEAR     14   6  70 N9        30.15S WCI   2
WISC RAPIDS    MOCLDY    14   5  67 CALM      30.18S
STEVENS POINT  CLOUDY    10   6  82 CALM      30.16S
WAUPACA        CLEAR     17   7  63 CALM      30.17S
SHAWANO        CLEAR     17   8  67 NW6       30.17S WCI   8
CLINTONVILLE   PTCLDY    18   7  62 N6        30.17R WCI   9
$$

WIZ038-039-048-051-271000-
FOX VALLEY

CITY           SKY/WX    TMP DP  RH WIND       PRES   REMARKS
NWS GREEN BAY  CLEAR     19   9  65 NW12      30.16S WCI   7
APPLETON       CLEAR     18   7  62 N7        30.15S WCI   8
OSHKOSH        CLEAR     18   6  59 N10       30.15S WCI   6
FOND DU LAC    CLEAR     19   6  57 N9        30.14F WCI   8
$$

WIZ022-050-052-271000-
EAST CENTRAL WISCONSIN

CITY           SKY/WX    TMP DP  RH WIND       PRES   REMARKS
STURGEON BAY   CLEAR     16   7  67 N10       30.15S WCI   3
MANITOWOC      CLEAR     19  10  68 N10       30.14S WCI   7
SHEBOYGAN      CLEAR     19   6  57 N13       30.13R WCI   6
$$

LMZ563-521-522-541>543-271000-
LAKESHORE

STATION/POSITION TIME  TEMP    WIND        PRES    VSBY  WAVE
                       AIR SEA DIR/SP/G                  HT/PER
                 (UTC) (F)     (DEG/KT/KT) (MB)    (MI)  (FT/S)
SHEBOYGAN LKSHOR 0900   20     330/ 17/ 20 1021.5R
KEWAUNEE LKSHORE 0900   18     340/  7/ 12 1019.7S
NORTHPORT PIER   0900   19     340/ 12/ 17 1020.7S
SISTER BAY LKSHO 0900   18     340/ 18/ 21   N/A
CHAMBERS ISLAND  0900   17     320/ 14/ 16 1020.7S
MENOMINEE LKSHOR 0900   15     290/  7     1021.5S
$$


USA.gov is the U.S. government's official web portal to all federal, state and local government web resources and services.